Location: Friedrichshafen
(47.6598°N, 9.4819°E)
Time: 07:24:50
(UTC+02:00)

ISS - Visible Passes

Search period start: 29 March 2017 00:00
Search period end: 08 April 2017 00:00
Orbit: 399 x 409 km, 51.6° (Epoch: 29 March)

Date Brightness Start Highest point End Pass type
(mag) Time Alt. Az. Time Alt. Az. Time Alt. Az.
29 Mar -4.0 21:41:50 10° WSW 21:45:05 88° S 21:45:05 88° S visible
30 Mar -3.7 20:49:33 10° SW 20:52:44 56° SSE 20:55:20 15° ENE visible
30 Mar -1.8 22:26:07 10° W 22:28:00 29° WNW 22:28:00 29° WNW visible
31 Mar -3.3 21:33:35 10° W 21:36:48 58° NNW 21:38:02 33° NE visible
31 Mar -0.4 23:10:31 10° WNW 23:10:43 11° WNW 23:10:43 11° WNW visible
01 Apr -3.8 20:41:06 10° WSW 20:44:22 81° NNW 20:47:39 10° ENE visible
01 Apr -2.4 22:17:59 10° WNW 22:20:37 36° NNW 22:20:37 36° NNW visible
02 Apr -2.8 21:25:25 10° W 21:28:33 43° N 21:30:24 21° NE visible
02 Apr -0.8 23:02:14 10° WNW 23:03:03 16° WNW 23:03:03 16° WNW visible
03 Apr -3.1 20:32:50 10° W 20:36:02 53° NNW 20:39:15 10° ENE visible
03 Apr -2.7 22:09:45 10° WNW 22:12:46 40° N 22:12:46 40° N visible
04 Apr -2.7 21:17:12 10° WNW 21:20:18 39° N 21:22:25 17° ENE visible
04 Apr -1.2 22:53:50 10° WNW 22:55:04 21° WNW 22:55:04 21° WNW visible
05 Apr -2.8 20:24:36 10° W 20:27:43 41° N 20:30:51 10° ENE visible
05 Apr -3.2 22:01:22 10° WNW 22:04:34 49° NNE 22:04:40 49° NNE visible
06 Apr -2.9 21:08:51 10° WNW 21:11:59 41° N 21:14:15 16° ENE visible
06 Apr -1.6 22:45:22 10° WNW 22:46:54 25° WNW 22:46:54 25° WNW visible
07 Apr -3.9 21:52:53 10° WNW 21:56:08 72° NNE 21:56:28 65° ENE visible
